Location: Bratislava
(48.1500°N, 17.1170°E)
Time: 11:08:35
(UTC+02:00)

OTV 5 (USA 277) - Visible Passes

Search period start: 25 May 2018 00:00
Search period end: 04 June 2018 00:00
Orbit: 308 x 326 km, 54.5° (Epoch: 06 May)

Date Brightness Start Highest point End Pass type
(mag) Time Alt. Az. Time Alt. Az. Time Alt. Az.
31 May ? 03:48:50 10° SSE 03:50:23 14° SE 03:51:57 10° E visible
01 Jun ? 04:02:06 10° SSW 04:04:34 31° SE 04:07:05 10° ENE visible
02 Jun ? 04:16:10 10° SW 04:18:54 75° SE 04:21:39 10° ENE visible
03 Jun ? 02:58:40 19° SSE 02:59:12 20° SE 03:01:21 10° E visible
